Miscellaneous Local Product
Issued by NWS Hastings, NE

Home | Current Version | Previous Version | Text Only | Print | Product List | Glossary Off
Versions: 1 2 3 4 5 6 7 8 9 10 11 12 13 14 15 16 17 18 19 20 21 22 23 24 25 26 27 28 29 30 31 32 33 34 35 36 37 38 39 40 41 42 43 44 45 46 47 48 49 50

000
AXUS43 KGID 021102
MISGRI

GID CWA HOURLY WEATHER ROUNDUP
NATIONAL WEATHER SERVICE HASTINGS NE
600 AM CDT TUE JUN 02 2015

NOTE: "FAIR" INDICATES FEW OR NO CLOUDS BELOW 12,000 FEET WITH NO
SIGNIFICANT WEATHER AND/OR OBSTRUCTIONS TO VISIBILITY.

...SOUTH CENTRAL NEBRASKA...

CITY           SKY/WX    TMP DP  RH WIND       PRES   REMARKS
GRAND ISLAND   CLOUDY    60  56  86 SE17      29.96F
HASTINGS       CLOUDY    61  57  87 S12       29.97F
KEARNEY        CLOUDY    61  57  88 S16       29.90F
ORD            CLOUDY    61  57  87 SE13      29.89F
YORK           LGT RAIN  59  55  88 S10       30.03R
AURORA         CLOUDY    60  58  95 S12       30.00F
LEXINGTON      CLOUDY    64  61  90 S13       29.86F
HOLDREGE       CLOUDY    61  58  92 SE8       29.93F
HEBRON         CLOUDY    59  54  85 SE9       30.02S

...NEBRASKA PANHANDLE...

CITY           SKY/WX    TMP DP  RH WIND       PRES   REMARKS
CHADRON        PTCLDY    59  52  77 CALM      29.86S
ALLIANCE       MOCLDY    58  55  90 SE9       29.85F
SCOTTSBLUFF    MOCLDY    57  53  86 N10       29.90R
SIDNEY         PTCLDY    59  55  87 S12G21    29.98R

...WESTERN AND NORTH CENTRAL NEBRASKA...

CITY           SKY/WX    TMP DP  RH WIND       PRES   REMARKS
VALENTINE      NOT AVBL
AINSWORTH      CLOUDY    63  59  88 SE8       29.86R
ONEILL         CLOUDY    62  58  84 S16G22    29.90F
BROKEN BOW     CLOUDY    66  58  75 SW5       29.87F
IMPERIAL       MOCLDY    58  56  93 S12       29.92F
NORTH PLATTE   LGT RAIN  64  54  69 CALM      29.81F
MCCOOK         CLOUDY    60  58  92 S7        29.94R

...EASTERN NEBRASKA...

CITY           SKY/WX    TMP DP  RH WIND       PRES   REMARKS
NORFOLK        CLOUDY    59  55  87 SE15G23   29.97F
SO SIOUX CITY  MOCLDY    58  52  80 S10       30.03F
TEKAMAH        MOCLDY    58  54  86 SE13      30.04F
COLUMBUS       CLOUDY    59  52  77 SE10      30.02F
ALBION         CLOUDY    60  55  82 S14G21    29.96F
OMAHA EPPLEY   CLOUDY    57  53  86 SE12      30.06F
OFFUTT AFB     MOCLDY    54  52  94 E6        30.06S
MILLARD        MOCLDY    58  54  87 SE6       30.06S
LINCOLN        MOCLDY    58  53  84 S13       30.04F
NEBRASKA CITY  CLOUDY    56  54  93 S8        30.08R
BEATRICE       MOCLDY    56  53  88 SE10      30.03F
FALLS CITY     MOCLDY    55  52  89 SE5       30.07R

...NORTHERN KANSAS...

CITY           SKY/WX    TMP DP  RH WIND       PRES   REMARKS
GOODLAND       MOCLDY    57  54  89 SE6       29.99S
HILL CITY      CLOUDY    64  61  90 SE10      29.96F
NORTON         SUNNY     61  57  88 SE14      29.93F
PHILLIPSBURG   CLEAR     64  64 100 E10       29.96F
SMITH CENTER   PTCLDY    59  57  94 E10       29.99F
HAYS           CLOUDY    63  54  72 N10       30.00R
RUSSELL        CLOUDY    62  58  86 S9        29.97R
CONCORDIA      CLOUDY    59  55  87 SE13      30.01S
SALINA         MOCLDY    61  57  87 SE10      30.00F
TOPEKA         CLOUDY    58  55  90 SE8       30.08F



USA.gov is the U.S. government's official web portal to all federal, state and local government web resources and services.